Wind_Speed
68 67 66 64 62 59 56 54 52 50 49 46 42 40 39 38 34 32 35 34 31 32 31 28 28 28 28 28 28 29 32 36 40 43 46 50 52 53 53 52 51 51 49 48 47 46 46 46 45 44 44 43 43 44 45 45 44 44 44 45 45 46 45 45 46 45 42 41 42 42 42 41 41 40 40 40 40 40 39 39 39 40 40 41 41 41 41
71 70 69 67 65 63 60 57 55 54 52 50 46 44 42 40 37 36 37 34 30 32 33 31 30 29 27 27 26 27 29 31 33 35 37 41 46 51 54 54 54 54 53 52 51 50 49 49 49 48 47 47 46 46 47 46 46 46 45 45 46 46 46 47 47 46 44 43 43 44 43 43 42 42 42 42 42 42 42 41 41 42 42 43 43 43 43
74 73 72 70 68 66 63 61 58 56 55 53 50 47 45 44 41 39 38 34 32 35 37 37 35 32 29 27 27 27 28 29 31 33 34 36 40 44 49 52 54 55 55 54 54 53 52 52 52 51 51 51 50 50 50 49 49 48 47 47 48 48 48 49 48 47 46 45 45 45 45 45 44 44 44 44 44 44 45 44 44 44 45 46 46 46 46
78 76 75 73 71 69 66 64 62 59 58 56 54 51 49 48 46 43 40 36 35 40 42 42 41 37 32 29 28 28 28 29 31 32 33 35 37 39 42 46 50 52 54 55 56 56 56 56 55 55 54 54 53 53 53 53 52 51 50 50 50 50 51 50 50 50 49 48 48 48 48 47 47 47 47 47 48 48 48 48 47 47 47 48 48 49 49
81 79 78 76 74 72 69 67 65 63 61 59 58 56 52 51 50 47 43 40 42 46 46 43 42 41 36 33 32 30 29 28 28 30 32 34 35 36 38 40 44 47 49 52 55 57 58 58 58 58 57 57 57 57 56 55 54 53 53 53 53 54 54 53 53 53 53 53 52 51 51 51 50 50 50 51 51 51 51 51 50 50 50 50 51 52 53
84 83 81 79 78 75 71 69 67 66 64 62 61 58 56 54 53 51 48 46 47 49 48 44 44 45 42 38 35 32 31 29 29 29 30 32 33 34 35 37 39 41 44 47 50 54 56 58 59 59 59 60 60 59 58 57 56 55 56 56 56 57 57 56 56 56 56 57 57 56 55 54 54 54 54 55 55 55 55 54 53 54 54 53 54 55 56
86 86 84 83 80 76 73 71 70 69 67 65 63 61 60 59 57 55 52 49 49 50 50 48 48 48 46 41 37 34 33 32 31 31 31 31 32 33 33 35 37 39 41 43 45 49 53 55 57 58 60 61 61 61 60 60 59 59 59 59 59 60 59 59 59 58 59 61 62 60 58 57 57 57 58 58 58 58 58 58 57 57 57 56 57 57 58
88 89 88 84 80 77 75 74 73 72 69 68 66 65 64 62 60 57 54 52 52 52 52 52 51 51 49 44 40 38 36 35 34 33 33 33 33 33 34 35 36 38 39 41 42 45 48 50 53 54 56 58 59 60 61 62 62 62 62 62 63 63 63 63 63 62 62 64 64 64 62 60 59 60 61 61 62 61 61 60 60 60 59 59 59 59 59
90 90 89 84 81 79 78 77 76 74 72 71 70 68 67 65 62 59 57 56 55 54 55 55 55 53 50 46 44 43 42 41 39 37 36 36 36 36 36 36 37 38 38 39 40 42 45 46 48 49 50 51 52 54 57 59 60 62 63 64 65 66 66 67 67 66 65 66 67 67 66 64 62 62 63 64 64 64 64 63 62 62 62 62 61 60 61
91 91 89 86 84 82 80 80 79 76 75 74 72 71 69 67 65 62 60 59 58 57 58 58 57 56 52 48 48 48 48 46 44 41 39 39 38 38 37 37 38 39 39 40 40 41 43 44 44 45 45 46 47 48 50 51 53 55 57 60 64 66 67 68 68 68 69 69 70 70 70 68 67 66 67 67 67 66 66 66 65 65 65 65 64 63 62
91 90 88 86 84 82 82 82 80 78 77 76 74 73 71 68 67 65 64 63 62 60 60 60 60 58 54 51 53 53 51 49 48 45 43 41 40 40 39 39 39 39 40 40 40 41 43 43 43 43 43 43 44 44 45 46 46 48 51 55 58 60 60 62 64 66 68 70 71 72 72 71 71 71 71 70 69 69 69 69 69 69 69 69 68 67 66
90 89 87 85 84 84 84 84 83 81 79 78 77 75 71 69 69 68 66 66 65 63 63 63 61 59 56 56 58 57 54 52 51 49 46 44 43 42 41 41 40 40 40 40 41 42 43 44 44 44 43 43 44 44 44 44 44 46 49 51 52 52 52 53 56 59 61 63 66 68 70 70 71 72 72 72 72 72 72 72 72 73 72 72 71 70 70
92 91 88 86 85 84 85 86 85 84 82 80 78 75 72 71 71 70 68 68 66 66 65 65 64 62 61 61 61 59 56 55 54 52 50 48 46 45 44 44 43 42 41 41 41 42 43 45 45 45 45 45 45 45 45 44 46 48 49 48 48 48 48 50 52 53 55 57 59 62 64 66 67 68 69 71 72 72 72 73 73 74 75 75 74 73 73
94 92 90 88 86 85 86 87 86 86 85 82 78 76 74 74 72 71 71 70 69 68 68 67 66 65 64 63 63 62 59 57 56 54 52 51 49 47 46 46 46 45 43 43 43 43 44 45 46 46 46 46 46 46 45 45 46 48 48 48 49 49 49 50 51 52 53 55 56 58 59 61 62 63 64 65 67 67 68 69 70 72 73 73 74 74 73
94 94 92 89 86 85 87 89 88 87 86 82 79 78 77 76 75 74 73 73 72 71 70 69 68 67 66 65 65 64 62 59 57 55 53 52 51 50 49 48 48 48 47 46 46 46 46 47 48 48 48 47 47 47 47 47 47 47 48 49 50 51 51 51 51 52 54 55 55 56 57 58 59 60 60 61 62 62 62 63 65 66 67 68 69 70 70
96 95 92 88 86 87 91 92 90 87 86 83 81 80 79 78 78 77 76 76 75 74 72 71 70 69 67 66 65 64 63 61 58 56 55 54 53 52 52 51 51 51 51 50 49 49 49 49 49 50 50 50 49 48 49 50 49 49 49 50 50 51 52 53 53 53 55 56 56 56 57 57 58 58 58 59 60 60 60 60 61 63 64 65 65 66 67
94 91 89 88 88 89 91 91 90 88 87 85 83 82 81 81 80 80 79 79 78 77 76 74 72 71 69 68 67 65 63 62 60 59 57 56 55 55 55 55 55 54 54 53 52 52 51 52 52 52 52 52 51 51 51 52 52 52 51 51 52 52 53 54 54 55 55 56 57 58 59 59 59 59 59 59 59 60 60 60 60 60 62 64 64 64 63
90 87 87 89 90 89 90 92 92 90 88 87 85 84 84 83 82 81 81 81 81 81 79 77 75 73 72 70 68 66 65 63 62 61 60 59 58 58 58 58 57 57 57 57 56 55 54 54 54 54 55 55 54 53 53 54 55 54 54 54 54 55 55 54 55 55 56 57 59 60 61 61 61 61 61 60 59 59 60 60 60 60 60 61 62 62 61
87 85 87 90 91 90 91 92 92 90 89 88 87 86 85 85 84 83 82 82 82 82 81 80 78 76 73 72 69 68 66 65 64 64 64 63 62 61 60 60 60 60 60 59 59 58 58 58 57 57 58 58 58 57 56 57 57 58 57 57 57 57 57 56 56 56 56 58 59 61 62 63 63 63 63 61 60 59 59 59 60 60 59 59 59 60 61
85 84 87 90 90 90 91 92 92 90 88 88 88 87 87 86 85 85 84 82 82 83 82 81 79 77 75 73 71 70 69 68 67 67 67 66 65 64 63 63 62 62 62 62 61 62 62 62 62 61 61 61 61 61 60 60 60 61 61 60 60 60 59 58 58 57 58 59 60 62 63 65 65 65 64 63 61 60 59 59 59 58 58 58 58 59 61
85 85 88 90 90 90 92 92 91 89 89 88 88 87 87 86 86 86 86 84 83 83 83 82 80 79 77 75 74 73 72 71 70 70 69 68 68 67 66 66 65 65 64 64 64 65 65 66 66 66 66 66 65 65 65 64 64 64 64 64 63 63 62 62 61 60 60 61 62 63 65 66 66 66 65 63 62 61 61 60 59 58 57 57 58 59 59
86 86 89 91 90 89 90 92 91 90 90 90 88 87 86 86 87 88 87 86 85 84 84 83 82 80 79 77 77 76 75 74 73 72 71 71 70 70 69 68 68 67 67 67 68 69 69 70 70 70 70 70 70 69 69 68 68 67 67 67 66 66 65 65 64 63 63 63 63 64 65 67 68 67 65 64 62 61 60 60 59 57 57 57 58 59 57
89 89 91 91 89 88 89 90 90 90 91 91 88 86 86 86 88 88 87 87 87 86 85 85 84 83 82 80 79 78 78 77 75 75 74 73 73 72 72 71 70 70 70 70 72 73 73 73 73 74 74 74 74 73 73 72 71 71 71 70 70 69 68 68 67 67 66 66 66 66 66 67 68 67 65 64 62 60 59 58 58 58 57 58 58 58 56
92 92 92 91 88 88 89 91 90 90 91 90 88 86 86 86 88 88 87 87 88 88 86 85 85 85 84 83 82 81 79 78 77 77 76 75 75 75 74 74 74 73 73 74 75 76 76 76 76 77 77 77 77 77 77 76 75 74 74 73 73 72 71 70 70 69 69 69 68 67 67 68 67 67 65 63 62 60 58 57 57 58 58 58 58 57 54
95 95 93 91 88 88 90 90 90 89 90 89 88 88 87 87 90 90 88 88 89 88 87 87 87 87 87 85 84 82 80 79 79 78 78 78 78 78 77 77 77 77 77 77 78 78 77 77 77 77 77 77 78 79 79 79 78 77 77 77 76 75 74 73 73 72 72 71 70 69 68 68 67 67 65 63 61 60 59 58 57 56 56 57 58 57 54
98 97 95 92 90 90 90 89 88 88 89 89 90 89 88 89 92 92 90 89 90 90 89 89 89 88 87 86 85 83 81 80 79 80 81 81 81 80 80 80 80 80 80 80 80 80 78 78 78 77 77 77 76 77 77 78 79 79 79 79 80 80 78 77 76 75 74 73 72 71 71 70 69 68 65 63 60 58 58 57 56 55 55 55 56 56 54
102 100 97 95 93 92 91 89 88 88 89 90 91 90 88 89 92 93 92 91 92 91 90 90 90 90 89 87 86 85 83 82 82 83 84 84 83 83 82 82 82 83 83 83 82 81 79 78 77 77 76 75 73 73 73 74 76 78 79 80 82 82 81 81 80 78 77 75 74 73 73 72 71 68 64 61 58 55 53 53 53 53 54 55 55 54 51
104 103 100 97 95 94 92 91 90 91 91 91 91 90 88 89 92 93 92 93 94 93 91 91 90 90 89 88 88 87 85 84 84 84 85 84 84 84 84 84 85 85 86 86 84 82 80 77 75 75 75 73 72 71 72 73 74 75 76 77 78 80 81 82 82 81 79 77 76 75 75 73 71 68 63 59 56 52 49 48 48 50 52 55 55 52 48
101 103 102 100 98 96 95 94 94 94 93 91 90 89 87 89 92 93 92 92 93 92 92 91 89 88 87 86 87 87 87 86 85 84 84 83 81 80 79 80 81 81 83 85 85 82 79 76 74 74 75 74 74 74 74 73 73 72 71 71 73 75 77 78 79 80 79 78 77 76 75 73 70 66 62 58 53 49 46 45 47 49 51 54 54 51 49
92 98 102 104 104 101 100 99 99 97 95 93 91 89 88 89 91 92 92 92 91 91 91 90 89 87 85 82 80 80 81 82 81 81 79 77 75 73 71 70 70 70 71 73 76 77 76 76 76 76 76 75 75 75 74 71 69 68 68 68 70 73 75 76 76 75 76 76 77 76 74 72 68 64 61 57 51 47 46 46 46 47 49 51 51 49 48
82 90 97 103 105 105 104 104 103 101 99 96 94 91 89 90 91 91 91 91 90 89 89 89 87 86 85 83 80 76 74 74 74 72 71 72 73 72 70 69 68 67 66 66 68 72 74 76 76 76 76 76 75 75 74 71 68 65 65 64 65 68 72 74 76 77 76 76 76 75 73 70 66 62 60 55 49 47 48 45 43 45 46 47 47 46 43
70 79 87 94 100 104 106 106 107 105 102 99 96 95 93 92 92 91 91 90 90 88 87 87 85 82 81 81 79 74 70 70 71 69 67 70 72 72 71 70 70 69 69 70 71 73 75 76 77 77 78 77 76 75 74 73 71 68 66 66 67 70 71 73 74 76 78 78 77 75 72 68 64 61 59 54 48 48 48 45 42 41 41 42 45 45 39
59 66 73 81 90 97 102 105 107 108 105 102 100 98 96 95 94 92 91 91 90 89 87 86 84 81 77 74 71 65 60 60 63 64 65 67 70 70 70 68 67 67 70 73 75 76 78 79 79 79 80 80 80 78 77 77 77 75 73 73 74 76 77 76 75 75 77 79 79 77 72 68 64 62 59 53 49 48 48 45 41 38 35 35 39 40 36
50 55 61 68 77 86 94 100 106 109 108 106 104 102 100 97 95 94 93 92 91 89 88 87 87 84 79 73 68 63 57 56 59 61 62 65 68 70 69 67 67 70 72 75 77 78 80 80 80 81 82 83 83 83 82 82 81 80 78 79 80 79 79 79 79 78 78 79 79 77 73 68 64 62 59 54 50 49 48 45 40 36 33 28 22 21 24
45 49 53 58 65 73 82 90 98 103 105 105 105 104 102 100 97 96 95 94 92 91 91 90 89 88 85 80 74 68 63 61 62 64 64 64 67 69 69 68 70 73 75 77 78 79 79 79 81 82 84 85 85 85 84 83 82 81 80 80 80 78 77 78 79 79 77 76 74 73 70 66 64 62 59 54 50 49 49 46 40 38 38 33 29 26 28
41 45 49 52 58 63 70 76 84 90 95 98 100 101 102 101 99 98 97 96 95 94 95 95 94 92 90 87 82 77 74 71 70 70 71 70 71 72 73 74 76 78 80 81 81 81 81 82 83 84 86 87 86 85 83 83 81 80 79 78 76 74 74 74 72 71 70 69 68 67 66 64 63 62 59 54 50 50 50 47 43 43 43 41 43 47 47
35 40 44 48 52 57 62 67 72 76 82 86 91 95 98 99 98 98 98 98 98 98 98 99 98 96 94 92 88 85 84 82 80 78 77 77 76 76 77 79 81 83 84 84 85 84 84 85 86 86 86 86 85 83 83 83 82 81 79 77 75 73 71 68 66 64 65 65 65 64 64 63 63 61 58 53 50 50 51 49 46 47 49 48 51 57 58
29 33 37 42 46 50 55 60 64 67 71 75 79 84 88 91 94 96 97 98 99 100 99 99 100 99 98 96 93 90 88 87 87 86 85 84 83 82 83 85 86 88 88 87 87 87 86 86 87 87 86 85 84 82 82 82 83 82 80 76 74 72 70 68 67 67 67 66 65 64 63 63 62 61 58 53 50 50 52 52 50 50 52 54 56 61 64
21 26 32 37 41 44 47 52 55 59 63 66 69 73 77 82 87 91 94 95 97 98 98 99 100 100 98 97 95 92 89 88 90 92 91 90 88 87 88 90 92 92 91 88 88 88 87 86 86 86 86 85 84 83 82 82 82 82 79 76 75 74 73 72 71 71 70 69 67 65 64 63 62 60 57 54 51 50 52 54 55 54 55 57 60 64 68
13 19 25 31 36 40 43 46 49 53 57 60 62 65 69 73 78 82 86 90 92 93 93 95 97 98 97 95 93 90 88 89 92 96 97 96 94 93 93 94 95 96 94 91 89 89 88 87 86 85 85 85 85 85 85 86 85 82 79 77 77 77 76 75 75 74 72 70 68 66 65 63 62 60 57 54 52 52 53 55 57 57 58 60 64 67 72
11 14 19 23 29 34 38 42 45 48 51 55 59 61 62 64 68 73 78 83 85 85 85 87 90 92 92 92 90 87 87 89 93 96 97 97 96 96 96 96 97 98 97 95 93 92 91 88 87 86 86 88 88 89 89 90 88 83 79 77 78 77 76 75 74 73 71 70 68 66 65 63 62 60 58 55 53 52 54 56 58 59 60 63 66 69 73
8 10 13 16 20 25 30 34 37 39 41 45 52 57 59 61 66 71 75 78 80 80 80 82 84 85 86 87 87 88 90 94 95 95 96 96 96 96 97 97 97 98 99 98 97 96 95 93 91 91 92 93 94 93 92 91 88 83 79 77 75 73 71 71 72 71 69 67 65 64 64 63 62 61 60 58 54 53 55 57 58 60 62 65 68 71 74
7 8 10 12 14 19 24 28 30 34 37 39 45 53 59 63 68 74 77 78 79 80 79 79 81 82 83 85 86 89 92 94 96 97 97 97 97 97 98 99 99 100 100 101 101 101 100 98 97 97 96 95 93 92 91 89 86 83 79 75 70 66 65 66 68 67 66 64 63 62 62 62 61 61 61 60 57 55 56 57 58 60 62 66 71 73 74
14 12 12 12 11 14 23 28 31 33 37 41 46 53 59 64 68 73 76 77 77 77 76 76 79 83 85 85 85 86 89 92 94 96 97 98 98 98 99 100 101 101 101 103 105 104 103 101 99 96 94 91 89 89 88 87 85 82 77 71 65 62 62 63 64 63 63 62 62 62 61 60 60 61 61 61 59 58 57 57 58 59 62 66 71 74 76
27 23 20 18 17 14 18 28 33 36 38 42 46 53 60 65 70 74 76 76 75 73 71 72 77 83 85 83 81 83 87 90 92 94 95 96 97 98 99 99 100 100 101 102 102 101 100 99 97 94 91 88 87 86 85 85 83 79 73 67 63 62 61 62 62 62 62 62 62 61 61 60 60 61 61 61 61 60 60 60 60 61 62 64 68 72 76
33 32 30 27 23 20 19 20 26 33 39 42 45 50 57 65 72 76 78 77 76 75 75 74 74 76 79 80 80 81 83 85 87 90 92 94 96 97 97 97 97 98 99 98 97 96 96 96 95 92 88 85 83 82 82 82 79 75 70 66 64 62 62 61 61 61 61 62 62 62 61 61 61 62 62 63 63 62 61 62 62 63 64 65 67 69 73
33 34 35 34 30 27 24 22 21 24 32 39 44 48 50 56 65 74 81 83 81 80 79 76 72 71 73 76 78 79 82 84 86 88 90 92 92 93 94 95 96 96 96 96 95 93 92 91 91 89 85 82 79 78 77 77 74 71 68 66 64 63 62 62 62 62 62 62 62 62 62 62 62 62 63 64 65 64 64 64 64 65 66 67 68 69 72
27 29 31 30 28 26 26 26 25 23 24 30 38 44 48 51 56 64 74 82 84 81 79 76 74 73 75 77 78 80 84 87 87 88 88 89 89 89 89 90 92 92 92 91 90 89 87 85 84 81 78 76 75 73 72 71 71 70 68 67 65 64 63 63 63 63 63 63 63 63 63 63 63 64 64 65 65 65 66 66 67 67 68 69 70 71 73
23 24 25 25 25 25 26 27 26 26 26 27 30 37 45 52 56 60 66 72 76 77 77 77 76 75 77 80 81 82 80 76 73 73 76 79 82 83 82 82 83 84 84 85 85 84 81 78 74 71 69 70 72 72 70 70 70 71 70 69 67 66 65 65 64 64 64 64 64 65 65 64 64 65 65 65 66 66 66 67 68 68 69 70 71 72 74
25 25 26 26 27 27 28 27 27 27 29 30 31 35 41 50 58 63 65 67 69 71 73 74 74 75 76 78 79 79 75 69 65 66 69 72 76 79 81 80 80 79 78 77 77 77 75 72 69 67 67 70 72 73 73 72 72 72 72 72 71 70 69 68 67 67 66 66 66 66 66 67 67 67 67 67 67 67 67 68 69 69 70 71 72 73 73
30 29 29 31 31 31 31 31 30 30 31 32 35 38 43 50 57 63 66 68 70 71 73 74 75 74 74 73 72 72 72 71 71 72 73 73 75 77 78 77 75 73 71 71 72 73 73 72 69 68 68 70 72 74 75 76 75 75 75 74 74 73 73 72 71 70 70 69 68 68 68 68 69 69 69 69 69 69 69 70 70 71 71 72 73 74 73
37 35 34 34 35 35 35 35 35 35 35 35 36 40 44 49 54 59 63 67 69 70 70 70 71 71 71 71 71 71 72 72 72 71 70 68 68 69 69 68 67 66 67 68 69 71 71 72 71 70 70 72 72 72 73 75 76 77 77 77 77 77 77 77 75 74 72 71 71 70 70 70 71 71 72 72 72 72 72 72 73 73 74 75 75 76 75
Wind_Direction
221 222 221 218 216 214 212 211 211 209 207 205 200 194 196 196 191 192 202 213 227 235 229 218 216 217 217 217 219 221 223 225 229 231 232 232 233 233 234 234 234 233 233 233 232 232 233 234 234 234 235 238 240 241 242 243 243 245 247 249 250 252 253 254 256 257 259 261 262 263 264 266 267 268 269 270 270 271 271 271 272 274 276 279 281 284 287
220 221 222 220 217 214 212 211 211 211 210 207 202 198 199 200 197 204 213 216 223 237 240 233 224 217 214 214 214 215 217 218 222 226 230 232 233 234 235 236 236 236 236 235 235 234 235 236 237 236 236 238 239 241 243 244 245 245 247 249 251 252 253 254 256 257 258 259 261 262 264 265 266 267 268 269 269 269 270 270 271 273 275 278 280 283 286
220 221 222 221 218 215 213 211 211 212 212 210 205 202 203 203 203 210 217 217 220 230 238 241 235 224 215 213 213 213 214 215 216 220 225 230 233 235 236 237 239 240 239 239 239 238 237 238 239 240 240 240 241 242 243 245 246 246 247 248 250 253 254 255 257 259 260 260 261 262 264 265 266 267 268 269 269 269 270 271 272 274 276 278 280 283 285
220 220 221 221 220 217 214 212 211 212 213 212 210 208 207 206 205 210 214 216 220 226 230 236 239 233 224 219 216 213 212 215 218 220 224 229 232 235 237 238 239 241 242 242 242 242 241 241 241 242 242 243 243 244 244 245 246 247 248 250 251 253 255 257 259 261 261 261 261 262 263 264 265 266 267 268 269 270 271 272 273 275 277 279 281 283 285
220 221 220 221 221 218 215 213 212 212 213 213 213 212 211 209 208 209 213 215 221 227 229 232 238 239 232 225 219 215 214 218 220 222 225 228 231 234 236 237 238 239 241 242 244 244 244 244 244 244 244 245 245 246 246 247 248 249 251 252 253 254 255 257 258 260 261 262 262 262 263 264 265 266 267 268 269 270 271 273 274 276 277 279 281 283 285
220 221 220 220 221 220 217 215 214 214 213 214 214 214 214 213 210 210 213 217 222 230 233 234 237 239 237 230 223 218 218 221 223 224 226 227 230 232 235 237 239 239 239 241 242 244 245 246 247 247 247 247 248 248 249 250 251 251 252 253 254 255 255 256 258 260 261 263 262 262 262 264 265 266 267 269 270 271 272 273 274 275 277 278 280 282 284
220 221 220 220 220 220 218 217 217 216 214 214 214 215 217 216 214 213 215 218 224 229 233 234 235 238 238 235 231 226 224 225 226 227 229 229 230 232 234 237 240 241 241 242 243 244 245 245 247 248 249 250 250 251 252 252 253 253 254 255 256 257 258 258 259 260 261 263 263 263 263 264 265 267 268 269 270 271 272 273 274 275 277 278 279 281 284
220 221 221 219 219 220 220 220 219 217 215 214 215 216 218 219 217 216 217 220 224 229 231 232 233 235 236 236 236 235 234 233 231 230 232 234 233 233 234 236 239 242 243 245 246 247 248 247 247 247 249 251 252 253 254 254 254 255 255 256 257 258 259 259 259 260 261 263 265 265 265 265 265 267 268 269 270 271 272 273 274 275 276 277 279 280 282
221 221 221 219 218 219 220 221 220 219 217 216 216 216 219 221 220 219 220 222 225 228 230 232 232 233 234 234 236 238 240 239 237 235 235 237 237 237 236 236 239 242 244 246 249 251 253 253 252 251 250 251 252 254 254 255 256 257 257 257 258 258 258 259 260 260 261 263 265 266 266 266 266 267 268 269 270 271 272 274 275 275 276 277 278 279 280
221 221 221 219 218 219 220 221 222 220 219 218 217 217 219 221 222 221 222 224 227 228 230 232 233 233 233 233 236 239 240 240 240 238 237 238 239 240 239 238 239 242 244 247 250 252 255 256 257 257 256 255 255 255 256 256 257 258 259 259 259 259 259 260 261 261 262 262 263 265 266 267 267 267 267 268 269 271 273 274 275 275 276 277 278 278 280
222 222 221 220 219 219 220 222 223 222 221 220 219 219 220 222 222 222 224 226 228 229 230 232 233 234 233 234 237 238 239 240 241 240 239 238 239 240 241 242 242 243 246 248 250 252 255 257 259 261 261 261 261 260 260 259 260 260 260 260 261 261 263 264 264 265 265 264 265 265 266 267 268 268 268 268 269 271 272 273 274 275 276 277 278 278 279
223 223 222 220 219 219 220 222 223 223 223 222 221 220 220 223 224 224 225 227 228 229 230 232 233 234 233 234 236 237 238 240 242 242 242 241 240 240 242 243 244 246 248 250 251 253 254 256 259 261 262 264 265 265 265 265 264 263 261 262 263 264 265 266 267 267 267 268 268 268 268 267 268 268 269 270 270 270 270 271 272 273 274 275 275 276 277
223 223 222 221 220 219 220 222 223 223 223 223 223 222 221 224 225 225 226 228 229 230 231 231 233 234 233 234 237 238 238 240 242 243 244 243 243 242 242 243 245 246 248 250 252 253 254 256 257 259 261 262 264 266 267 267 267 266 266 267 268 268 267 266 267 267 268 268 269 269 270 270 270 270 270 270 270 271 271 271 271 272 272 273 273 274 275
222 223 222 221 220 219 221 222 222 223 224 223 223 224 224 225 226 226 227 228 229 230 231 231 232 234 234 236 237 238 239 240 241 243 244 245 245 244 243 244 246 247 247 249 250 251 252 254 256 258 259 261 263 265 266 266 267 269 270 271 271 270 269 269 269 269 270 270 270 271 272 272 272 272 272 272 272 272 273 273 273 273 274 274 274 274 274
222 222 222 221 219 219 222 223 223 223 223 223 223 224 225 227 228 228 228 229 230 231 231 232 233 234 235 236 238 239 239 240 241 243 244 245 246 246 245 245 247 248 248 248 249 251 252 253 254 256 258 260 261 263 264 265 266 268 269 270 271 271 272 271 272 272 272 273 274 274 274 274 275 274 275 275 275 275 275 275 276 276 276 276 276 276 276
222 221 220 220 219 220 222 224 223 223 223 223 223 224 225 227 229 230 229 230 231 232 232 232 233 234 234 236 237 239 239 240 241 242 244 245 247 248 248 248 249 250 250 250 250 251 252 253 254 255 257 258 259 261 263 264 265 266 267 269 270 271 271 272 272 273 274 275 276 276 276 276 276 276 275 275 275 276 276 276 277 277 278 277 277 278 278
222 220 219 219 220 220 222 224 224 224 223 223 223 224 225 226 229 231 231 231 232 232 232 232 233 234 235 236 237 239 240 240 242 243 245 247 248 249 250 251 251 252 253 253 253 253 253 254 255 256 256 257 258 260 262 263 265 266 267 268 269 269 270 271 271 273 274 276 277 277 278 278 278 277 277 276 276 276 276 276 276 276 277 278 278 279 279
222 220 219 220 220 220 221 223 224 224 223 223 223 224 225 226 227 230 232 233 233 233 233 233 233 234 235 237 238 239 241 242 243 245 246 247 248 249 250 252 253 254 255 255 255 255 255 255 256 257 258 258 259 259 261 263 264 266 266 267 268 269 269 269 270 271 273 275 276 277 278 278 279 279 279 279 279 278 278 277 276 276 276 277 278 279 279
222 220 220 220 220 219 220 222 223 223 223 223 223 223 224 225 226 229 232 234 235 234 234 234 234 235 236 237 239 241 242 243 245 246 247 248 249 250 250 251 253 254 255 256 256 256 256 256 257 257 257 258 259 259 260 262 263 265 266 266 267 268 269 269 270 271 272 273 274 275 276 277 278 279 280 281 281 280 279 278 277 276 276 276 277 278 278
222 221 221 221 220 220 220 221 222 223 223 223 223 223 224 225 226 228 230 234 236 237 236 235 235 235 236 238 240 241 243 244 245 247 248 249 250 250 251 252 253 254 255 256 257 257 258 258 257 257 257 258 258 259 260 261 262 264 266 266 267 267 268 269 270 271 271 272 273 274 274 275 276 278 279 281 282 282 281 279 277 276 276 276 276 276 276
223 222 222 222 221 220 220 221 221 222 223 223 223 223 224 225 227 228 230 232 235 238 238 237 236 236 237 238 239 241 243 244 245 247 248 249 250 251 251 252 253 253 254 255 256 257 258 258 258 258 258 259 259 260 261 262 263 264 265 266 266 267 267 268 268 269 270 271 272 273 274 274 276 277 279 280 281 282 281 280 279 278 277 277 276 276 275
223 223 223 223 221 220 220 221 221 222 223 224 223 223 224 226 227 228 230 231 234 237 239 240 239 238 238 239 240 241 242 244 245 246 248 249 250 251 251 252 253 253 254 255 256 257 257 258 258 259 259 260 260 261 262 263 263 264 265 265 266 267 268 268 268 269 269 270 271 272 273 274 275 276 278 279 280 281 281 281 280 279 279 278 277 277 277
222 223 224 223 221 220 221 221 221 222 223 224 223 223 224 226 228 229 229 231 233 235 237 240 241 240 240 240 241 242 243 244 245 246 247 248 249 250 251 252 252 253 254 255 256 257 257 258 259 259 260 261 262 262 263 263 264 264 265 265 266 267 267 268 269 269 269 270 271 272 272 273 275 276 277 278 280 280 280 280 280 281 280 279 278 278 278
222 223 223 223 221 220 221 222 221 222 223 224 223 223 225 227 229 230 230 231 233 235 236 238 240 242 241 241 241 242 243 244 245 246 247 249 250 250 251 252 252 253 254 255 256 257 258 259 260 261 262 263 264 264 264 264 264 264 265 265 266 267 267 268 268 268 269 269 270 271 272 273 275 276 277 279 280 281 280 280 280 280 280 279 279 279 279
221 222 222 222 221 221 221 221 221 221 223 224 224 224 225 227 230 231 231 232 234 235 236 237 239 241 242 243 243 243 243 244 246 247 248 249 249 250 251 252 252 253 254 255 256 257 258 259 260 262 263 264 265 265 265 265 265 266 266 266 266 266 267 267 268 268 268 268 268 269 271 272 273 275 276 278 279 280 280 280 280 279 278 277 277 277 278
220 221 221 221 221 221 221 221 221 221 222 223 224 225 225 227 230 231 232 233 234 235 236 238 239 240 242 243 244 245 245 246 246 247 248 249 250 250 251 253 254 254 255 255 256 257 258 259 260 262 264 265 265 265 266 266 265 265 266 266 266 266 266 267 267 268 267 267 267 268 269 271 272 273 274 275 276 277 278 280 280 278 276 274 273 274 275
219 220 220 220 221 221 222 222 221 222 222 222 223 224 224 226 229 231 231 232 234 235 236 237 239 240 241 243 244 245 246 247 248 248 249 250 251 252 253 253 254 255 255 256 256 257 258 259 260 262 263 264 264 265 265 265 265 265 264 264 264 265 265 266 266 266 265 265 266 267 267 269 270 272 273 275 276 276 277 278 278 276 274 273 272 272 269
219 219 219 219 219 221 221 222 222 222 222 221 222 222 223 224 228 230 230 231 233 234 235 236 238 239 241 242 243 244 245 246 247 249 250 251 252 254 254 254 254 255 255 256 255 255 256 257 258 259 259 260 261 263 264 265 265 264 263 262 262 263 264 265 265 265 264 264 265 266 266 267 269 272 274 275 276 276 277 277 274 271 269 269 270 268 261
219 219 219 219 219 220 221 221 222 222 222 221 220 220 221 223 226 228 230 231 232 233 234 236 237 239 240 241 243 243 244 246 247 249 250 252 253 253 254 254 254 255 255 254 252 252 252 253 253 254 255 257 260 262 264 265 264 263 261 261 261 262 263 265 265 264 263 263 265 265 265 266 269 272 274 275 276 276 277 276 272 268 265 265 266 264 258
219 219 219 218 218 218 219 221 222 222 221 221 220 219 220 222 225 227 229 230 231 233 234 235 236 237 239 240 242 242 243 244 246 248 249 250 250 250 250 251 253 254 252 249 248 247 247 248 249 251 253 256 259 261 262 263 263 262 262 262 263 264 264 264 264 263 263 263 264 264 265 266 268 271 273 274 275 276 275 273 269 266 265 264 261 257 256
219 218 218 218 218 218 218 220 221 221 220 220 219 219 219 222 224 226 228 229 231 233 234 236 236 237 238 239 241 242 244 244 245 246 248 249 249 249 249 250 252 252 249 245 243 243 244 246 249 251 254 257 260 261 261 260 260 262 263 266 269 271 271 269 267 265 264 263 264 264 265 266 268 270 272 274 274 274 273 271 268 264 264 262 257 250 250
218 218 218 218 219 218 218 220 221 221 220 219 219 218 219 221 223 225 226 228 230 232 233 235 236 237 239 240 241 244 247 247 246 246 246 248 249 248 248 249 250 249 248 245 244 244 245 247 250 253 255 258 260 261 261 260 259 261 265 270 274 277 278 276 273 270 267 266 265 264 266 267 269 270 272 273 273 272 271 270 267 262 260 259 255 248 243
216 217 217 217 218 218 218 219 221 222 221 220 219 218 218 220 222 224 225 227 229 231 233 235 236 236 237 239 240 242 243 243 244 243 242 243 245 245 243 244 245 246 246 246 246 247 248 249 251 253 255 257 259 261 261 261 261 263 268 272 276 278 279 278 276 274 272 269 267 266 268 269 269 270 270 270 270 269 269 268 265 258 252 251 253 250 244
211 213 214 215 216 217 217 218 220 222 222 221 220 219 219 219 221 223 225 227 228 230 232 234 236 236 236 235 236 236 235 234 236 237 237 239 241 240 239 240 242 244 246 247 248 249 250 250 252 253 256 257 259 260 262 262 262 264 269 274 277 279 279 277 275 274 273 270 268 267 268 268 268 267 267 268 268 266 265 264 258 247 238 234 235 246 252
206 207 208 210 213 215 217 218 219 221 222 222 221 221 220 220 221 223 225 227 228 230 232 233 234 236 236 234 232 232 231 230 230 232 233 236 237 237 237 239 241 243 245 247 249 251 252 252 252 254 256 258 260 261 262 262 263 266 271 276 278 279 278 276 274 273 271 269 267 266 266 266 265 265 264 265 264 262 262 261 251 237 230 219 202 207 235
202 203 203 204 207 210 214 217 219 221 222 222 222 222 221 221 221 222 225 227 228 230 232 233 233 234 235 234 232 230 230 230 230 229 230 233 234 236 237 239 241 243 244 246 248 251 253 254 255 256 258 260 261 262 262 263 265 269 274 277 278 277 276 275 272 270 268 266 265 265 264 263 263 263 262 262 262 259 257 257 247 232 225 217 203 206 226
197 199 200 201 202 205 208 212 215 218 220 221 221 222 222 222 221 222 225 227 229 230 232 233 233 234 235 234 233 231 230 232 232 231 231 232 235 237 239 240 242 245 247 248 249 251 253 255 257 259 260 261 262 263 264 266 269 273 276 277 276 275 274 271 268 265 264 264 264 264 264 262 262 262 260 260 260 257 254 253 246 233 225 220 213 213 223
191 194 196 198 199 201 204 207 210 214 216 217 219 220 221 221 222 222 224 226 229 231 232 233 234 234 235 235 235 233 231 232 233 234 235 236 238 240 242 243 244 246 248 249 250 251 253 255 257 259 260 261 263 265 267 270 273 275 276 275 274 273 272 268 265 264 263 263 263 263 264 263 262 261 259 258 257 254 251 250 247 237 229 226 223 221 224
185 189 191 193 194 196 199 203 206 210 212 214 215 216 218 220 221 222 224 226 228 230 232 233 234 235 235 236 236 236 234 233 233 234 236 238 239 241 242 244 245 246 248 249 250 251 253 255 257 259 261 263 264 267 269 271 273 274 274 273 273 273 271 268 265 263 263 263 263 263 263 263 262 261 259 257 255 253 249 248 247 242 234 231 230 228 225
170 184 187 189 189 190 193 196 200 204 208 209 210 212 214 216 218 220 222 224 226 228 231 233 234 235 235 235 235 236 235 233 232 233 235 238 239 241 242 244 245 246 247 248 249 250 252 254 257 260 262 264 266 267 268 270 270 271 271 271 272 272 270 267 264 262 262 262 263 264 264 264 262 261 259 257 255 252 248 246 246 244 238 234 233 232 229
144 169 180 184 185 187 190 193 197 202 205 205 206 207 209 211 213 215 218 221 223 225 228 231 233 234 234 235 235 234 232 231 230 232 235 236 238 241 243 244 245 246 247 247 248 250 252 255 259 261 263 265 266 267 267 268 268 268 269 270 271 269 266 263 261 261 261 262 263 265 265 265 262 261 260 258 256 254 251 248 246 246 242 238 235 234 231
98 135 157 171 180 186 191 195 196 198 201 204 204 204 202 203 206 209 212 216 220 221 223 226 229 230 231 232 232 231 229 228 229 231 234 236 238 240 242 243 244 246 247 248 250 252 254 257 260 261 263 264 265 265 265 266 266 267 270 270 268 264 261 260 260 260 261 263 264 266 266 265 263 262 262 260 258 255 253 251 248 247 245 244 242 239 234
77 113 147 165 173 177 186 194 194 189 188 193 199 201 200 200 203 206 209 212 216 218 220 224 227 228 228 229 229 228 228 228 229 231 234 236 238 240 241 243 244 245 247 249 251 253 255 257 259 261 262 262 263 263 264 265 266 268 270 268 264 261 260 260 260 260 261 263 265 266 267 267 265 264 263 263 261 258 255 252 250 248 247 247 248 247 243
130 142 176 210 216 190 182 187 192 191 188 187 192 198 200 202 204 206 207 210 213 217 220 223 227 228 228 229 229 229 229 229 230 232 234 236 238 240 242 243 244 245 247 248 251 253 254 256 257 259 260 261 262 263 264 265 266 268 267 263 259 260 262 262 261 261 261 262 264 266 267 267 266 265 264 264 263 261 258 255 253 251 249 248 249 250 251
147 155 179 215 242 235 201 190 192 196 197 195 195 198 201 203 205 207 206 206 209 213 218 222 226 228 228 227 228 229 229 230 231 232 234 236 238 240 242 244 245 246 247 248 250 252 253 254 256 257 259 260 262 263 263 265 266 266 262 257 257 260 262 262 262 262 262 262 264 265 266 265 265 264 264 263 262 261 260 258 256 254 253 252 251 251 253
164 168 176 192 213 232 231 213 199 197 199 202 204 204 204 204 206 207 206 205 207 212 216 219 224 227 227 227 227 228 229 230 232 233 235 237 238 240 241 243 245 246 247 248 250 252 253 254 255 256 257 258 259 260 261 263 264 261 257 254 256 259 260 260 262 262 262 263 264 265 265 264 264 263 263 263 262 261 260 259 258 256 255 254 253 252 252
181 184 187 193 202 216 229 233 224 209 202 202 206 210 210 207 205 206 207 208 211 215 217 219 222 225 227 227 229 230 230 231 232 233 235 237 239 240 242 244 246 247 248 249 250 251 253 254 255 256 256 256 256 257 259 259 259 257 254 254 256 258 259 260 261 261 262 262 263 263 264 264 263 263 262 262 262 262 261 260 259 258 257 255 255 255 254
196 198 201 203 205 209 218 227 232 231 221 212 209 211 213 211 207 206 207 210 214 217 219 220 223 225 227 228 230 232 233 234 236 238 239 240 241 243 245 246 247 248 249 250 250 251 252 253 253 254 254 254 254 254 255 255 254 253 253 254 256 258 259 260 260 261 261 261 262 262 263 263 263 262 262 262 262 262 262 261 261 260 259 258 257 256 256
205 210 212 213 212 211 214 219 225 230 232 229 222 218 217 215 212 209 208 209 212 215 217 219 221 225 228 229 231 234 236 237 239 241 242 242 242 242 245 248 250 251 252 252 251 250 250 251 251 253 254 254 254 253 252 252 251 251 252 253 255 257 258 258 258 259 259 260 260 261 261 261 261 262 262 262 262 262 262 262 261 261 260 259 258 257 257
203 209 215 217 218 219 218 220 223 226 229 231 230 226 222 219 215 212 210 210 211 212 215 217 221 226 229 232 234 237 239 241 242 242 242 242 243 244 246 250 253 254 253 251 249 248 247 248 249 252 254 255 254 253 252 251 251 251 252 253 254 255 257 258 257 257 257 258 259 259 259 260 260 260 260 261 261 261 261 262 262 262 261 261 261 260 259
204 208 212 214 217 219 220 222 224 226 228 230 230 229 225 221 218 215 213 211 211 212 214 218 222 226 230 234 237 239 241 243 244 244 245 246 247 248 249 250 251 250 248 246 245 245 245 246 247 250 252 254 256 256 254 252 251 251 251 252 254 255 256 257 258 257 256 256 256 257 258 258 259 259 259 260 260 260 260 260 261 261 262 262 263 263 263
211 212 214 216 217 218 219 220 222 223 224 225 227 227 226 223 221 218 216 215 214 216 220 223 226 230 233 237 238 239 240 242 243 243 244 246 248 249 249 248 247 247 247 247 246 247 247 247 248 250 252 254 256 257 257 255 254 252 252 253 254 256 257 258 258 258 257 256 256 256 257 258 258 258 259 259 259 260 260 260 260 261 261 262 262 263 263
Height
10763 10768 10772 10779 10787 10793 10799 10805 10810 10814 10818 10823 10829 10834 10837 10839 10844 10844 10839 10840 10843 10844 10848 10853 10855 10857 10860 10862 10864 10867 10869 10871 10873 10875 10877 10880 10883 10886 10888 10891 10893 10896 10899 10902 10905 10907 10909 10911 10913 10915 10917 10918 10920 10921 10922 10923 10925 10926 10927 10928 10928 10929 10931 10931 10931 10934 10937 10938 10938 10938 10939 10940 10941 10942 10943 10944 10944 10944 10944 10944 10944 10944 10944 10943 10943 10943 10943
10754 10759 10763 10771 10779 10786 10792 10798 10803 10808 10813 10818 10824 10829 10832 10836 10840 10839 10836 10840 10843 10841 10842 10846 10849 10853 10857 10859 10862 10863 10864 10867 10869 10870 10872 10874 10877 10880 10882 10885 10888 10890 10893 10896 10898 10901 10904 10905 10906 10909 10911 10913 10914 10915 10916 10918 10920 10921 10923 10924 10923 10924 10925 10925 10926 10929 10933 10934 10933 10933 10934 10935 10936 10937 10938 10938 10938 10938 10939 10939 10939 10939 10939 10939 10938 10939 10939
10745 10750 10755 10762 10770 10778 10785 10792 10797 10802 10807 10812 10818 10823 10827 10831 10834 10834 10835 10839 10841 10838 10836 10838 10841 10847 10853 10856 10858 10859 10861 10863 10865 10867 10868 10870 10872 10875 10878 10880 10883 10885 10888 10890 10892 10895 10898 10899 10900 10903 10905 10906 10908 10909 10911 10913 10914 10916 10918 10919 10919 10919 10920 10920 10922 10925 10927 10928 10928 10928 10929 10930 10931 10932 10933 10933 10933 10933 10933 10934 10934 10935 10934 10934 10933 10934 10934
10736 10741 10747 10754 10761 10769 10777 10784 10790 10796 10801 10807 10812 10816 10820 10824 10827 10828 10831 10836 10837 10831 10829 10832 10835 10841 10848 10852 10854 10856 10858 10860 10862 10864 10865 10867 10869 10871 10873 10875 10878 10880 10882 10884 10886 10888 10891 10893 10895 10896 10898 10900 10902 10903 10905 10906 10908 10911 10914 10914 10915 10915 10915 10916 10918 10919 10920 10922 10923 10923 10923 10924 10925 10926 10927 10927 10927 10927 10928 10928 10929 10929 10929 10929 10928 10928 10928
10727 10732 10739 10746 10752 10759 10768 10777 10783 10789 10795 10800 10803 10808 10813 10817 10821 10823 10826 10830 10829 10824 10825 10830 10833 10836 10843 10848 10850 10853 10855 10857 10859 10861 10862 10863 10865 10867 10868 10870 10872 10874 10876 10878 10879 10881 10884 10886 10888 10890 10892 10894 10896 10897 10899 10902 10905 10908 10909 10909 10910 10910 10910 10912 10912 10912 10913 10915 10916 10917 10918 10918 10920 10920 10921 10921 10921 10922 10923 10923 10924 10924 10924 10924 10924 10922 10922
10717 10722 10730 10737 10742 10751 10762 10770 10776 10782 10787 10792 10797 10802 10806 10809 10813 10817 10820 10823 10823 10822 10824 10830 10831 10832 10836 10842 10846 10850 10852 10854 10856 10857 10858 10860 10861 10862 10864 10865 10867 10869 10870 10872 10873 10875 10877 10879 10881 10884 10886 10888 10889 10892 10895 10898 10901 10902 10903 10904 10904 10904 10905 10907 10907 10907 10907 10907 10908 10910 10912 10913 10914 10915 10915 10915 10916 10916 10917 10918 10919 10919 10919 10920 10919 10917 10916
10707 10712 10718 10725 10734 10745 10756 10762 10767 10773 10780 10786 10792 10795 10797 10800 10805 10809 10814 10819 10820 10820 10822 10825 10827 10827 10831 10837 10842 10846 10848 10850 10852 10853 10854 10856 10857 10858 10859 10860 10862 10864 10865 10867 10868 10869 10871 10874 10877 10879 10880 10882 10885 10888 10890 10892 10894 10895 10896 10897 10898 10898 10899 10900 10901 10902 10901 10900 10899 10903 10906 10908 10909 10909 10909 10909 10909 10910 10911 10912 10913 10913 10914 10914 10913 10912 10912
10696 10701 10707 10719 10732 10741 10748 10753 10759 10765 10772 10779 10783 10786 10789 10793 10799 10805 10811 10815 10815 10816 10817 10819 10821 10823 10827 10833 10838 10841 10843 10845 10847 10849 10850 10851 10853 10854 10855 10856 10857 10858 10860 10861 10863 10864 10866 10869 10872 10874 10876 10878 10880 10882 10884 10885 10887 10888 10890 10890 10891 10892 10892 10892 10893 10894 10894 10893 10893 10895 10898 10902 10904 10904 10902 10902 10902 10903 10904 10905 10906 10907 10908 10908 10908 10908 10907
10686 10691 10700 10715 10726 10732 10738 10744 10749 10756 10764 10770 10775 10779 10783 10787 10794 10800 10805 10807 10809 10810 10811 10812 10815 10818 10823 10829 10833 10834 10836 10838 10841 10844 10846 10847 10848 10850 10851 10852 10853 10854 10855 10857 10858 10859 10861 10863 10866 10868 10871 10874 10875 10876 10877 10879 10880 10882 10883 10883 10883 10884 10884 10884 10885 10887 10888 10888 10888 10887 10890 10894 10897 10897 10896 10896 10895 10896 10897 10899 10900 10900 10900 10900 10901 10902 10901
10676 10682 10693 10706 10716 10723 10731 10735 10740 10749 10756 10760 10766 10772 10776 10782 10788 10794 10797 10799 10801 10803 10804 10806 10809 10813 10819 10826 10827 10827 10828 10831 10834 10838 10841 10842 10844 10845 10847 10848 10849 10850 10851 10852 10854 10855 10856 10858 10860 10863 10866 10868 10870 10870 10871 10873 10875 10875 10875 10874 10874 10875 10877 10878 10879 10880 10881 10881 10881 10881 10883 10886 10889 10889 10889 10889 10889 10890 10890 10891 10892 10892 10892 10893 10894 10896 10895
10667 10675 10687 10700 10710 10718 10724 10726 10732 10741 10746 10752 10759 10764 10770 10776 10782 10786 10789 10791 10793 10796 10798 10800 10803 10808 10816 10821 10819 10818 10821 10824 10827 10831 10835 10837 10839 10841 10842 10843 10845 10846 10847 10848 10850 10851 10851 10852 10855 10857 10860 10862 10863 10865 10865 10867 10869 10869 10867 10866 10866 10868 10871 10872 10873 10873 10873 10873 10874 10875 10877 10879 10880 10880 10880 10882 10883 10884 10883 10883 10883 10884 10884 10885 10886 10887 10887
10662 10669 10680 10692 10701 10710 10715 10718 10724 10731 10737 10743 10749 10756 10765 10771 10773 10777 10781 10783 10786 10789 10791 10794 10797 10803 10809 10810 10808 10810 10815 10818 10820 10824 10828 10831 10834 10836 10838 10839 10840 10842 10843 10844 10845 10846 10847 10848 10850 10852 10853 10855 10856 10858 10859 10861 10861 10860 10859 10859 10861 10864 10866 10867 10866 10865 10865 10866 10866 10866 10868 10870 10871 10872 10872 10873 10874 10875 10876 10876 10876 10876 10876 10876 10877 10878 10878
10651 10657 10669 10681 10692 10700 10706 10710 10715 10721 10727 10734 10741 10751 10759 10762 10764 10769 10773 10774 10778 10781 10783 10787 10791 10794 10799 10800 10800 10804 10809 10812 10814 10818 10821 10824 10827 10830 10832 10834 10835 10837 10839 10839 10841 10842 10842 10843 10844 10846 10847 10849 10849 10850 10852 10854 10853 10852 10852 10855 10856 10858 10859 10859 10859 10859 10858 10858 10858 10858 10859 10861 10863 10864 10864 10864 10865 10866 10867 10868 10867 10867 10866 10867 10868 10869 10869
10640 10648 10659 10669 10680 10691 10696 10700 10706 10711 10717 10727 10737 10745 10749 10751 10755 10760 10763 10766 10770 10773 10776 10780 10783 10786 10790 10793 10794 10798 10802 10805 10808 10811 10814 10817 10820 10823 10826 10828 10829 10831 10833 10834 10835 10836 10837 10838 10839 10840 10841 10842 10843 10844 10845 10846 10846 10845 10847 10848 10849 10849 10851 10851 10851 10851 10851 10850 10851 10852 10852 10853 10854 10855 10856 10856 10857 10858 10859 10858 10858 10858 10858 10857 10857 10859 10860
10630 10636 10645 10656 10672 10684 10686 10687 10694 10701 10709 10720 10730 10735 10738 10742 10747 10751 10754 10757 10760 10764 10768 10771 10775 10779 10782 10785 10787 10790 10794 10798 10802 10805 10808 10811 10813 10816 10819 10821 10823 10825 10826 10828 10830 10830 10831 10832 10833 10834 10835 10836 10837 10838 10838 10839 10839 10840 10840 10840 10841 10841 10842 10843 10844 10844 10843 10843 10844 10844 10845 10846 10846 10847 10848 10848 10848 10849 10850 10850 10849 10849 10849 10849 10848 10849 10849
10614 10622 10635 10651 10665 10673 10674 10676 10685 10695 10703 10712 10720 10725 10729 10734 10736 10739 10744 10748 10750 10754 10759 10763 10767 10771 10774 10777 10780 10783 10787 10791 10795 10799 10802 10804 10807 10810 10812 10814 10816 10817 10819 10821 10823 10824 10825 10825 10826 10827 10828 10829 10830 10831 10831 10832 10832 10832 10833 10833 10834 10834 10834 10835 10836 10836 10836 10836 10837 10837 10837 10837 10838 10839 10840 10840 10840 10840 10842 10842 10842 10841 10840 10839 10840 10840 10839
10602 10616 10633 10646 10654 10662 10667 10671 10678 10686 10694 10702 10709 10715 10720 10724 10726 10729 10734 10738 10741 10745 10749 10754 10759 10762 10766 10769 10773 10776 10781 10785 10789 10792 10795 10798 10800 10803 10804 10806 10808 10810 10811 10813 10815 10817 10818 10819 10819 10820 10820 10822 10823 10824 10825 10825 10825 10825 10826 10826 10827 10827 10827 10828 10829 10829 10830 10830 10830 10829 10829 10829 10830 10830 10831 10832 10833 10833 10834 10835 10835 10834 10833 10831 10831 10832 10832
10597 10613 10627 10634 10641 10652 10659 10661 10665 10675 10685 10693 10700 10705 10710 10714 10718 10720 10723 10727 10732 10735 10740 10746 10750 10754 10758 10762 10767 10771 10775 10779 10782 10785 10788 10790 10793 10795 10797 10799 10800 10802 10803 10805 10807 10809 10810 10811 10812 10813 10813 10814 10815 10817 10818 10818 10818 10818 10819 10819 10819 10819 10820 10821 10822 10823 10824 10823 10822 10822 10822 10822 10822 10822 10822 10824 10825 10825 10826 10827 10827 10826 10826 10825 10824 10824 10824
10591 10606 10616 10620 10628 10639 10646 10648 10655 10666 10676 10683 10690 10696 10700 10705 10710 10713 10715 10718 10722 10726 10731 10737 10742 10747 10752 10756 10761 10765 10769 10772 10775 10777 10779 10782 10784 10787 10789 10791 10792 10793 10795 10796 10798 10800 10801 10803 10804 10805 10805 10806 10807 10808 10810 10811 10811 10811 10811 10812 10812 10812 10812 10813 10814 10815 10816 10816 10815 10815 10815 10815 10815 10814 10814 10815 10816 10817 10817 10818 10818 10818 10818 10818 10818 10817 10815
10583 10597 10605 10609 10617 10629 10636 10640 10648 10657 10666 10674 10680 10686 10692 10697 10702 10706 10709 10711 10713 10717 10723 10729 10734 10740 10745 10749 10753 10757 10761 10764 10767 10769 10771 10774 10776 10779 10781 10783 10784 10785 10787 10788 10789 10790 10791 10793 10794 10795 10796 10797 10798 10800 10801 10803 10804 10804 10804 10804 10805 10805 10806 10806 10807 10808 10808 10808 10808 10808 10808 10807 10808 10808 10807 10808 10808 10809 10808 10808 10808 10809 10810 10810 10810 10809 10807
10573 10587 10593 10597 10606 10617 10623 10629 10639 10649 10656 10662 10669 10676 10683 10689 10693 10697 10701 10704 10706 10709 10713 10720 10726 10731 10736 10740 10743 10746 10750 10754 10757 10760 10763 10766 10768 10771 10773 10775 10776 10778 10779 10780 10781 10781 10782 10783 10784 10786 10787 10788 10790 10791 10793 10794 10796 10796 10796 10797 10797 10797 10798 10799 10799 10800 10800 10800 10800 10800 10800 10800 10801 10801 10801 10801 10801 10801 10800 10799 10799 10801 10802 10802 10801 10800 10799
10564 10575 10579 10583 10593 10605 10613 10620 10631 10640 10644 10649 10658 10667 10674 10679 10682 10686 10690 10695 10699 10702 10705 10709 10716 10721 10725 10729 10733 10736 10740 10744 10747 10751 10754 10757 10760 10762 10764 10767 10768 10770 10771 10772 10772 10773 10773 10774 10775 10776 10777 10779 10781 10783 10784 10786 10787 10788 10788 10789 10789 10790 10790 10791 10791 10791 10792 10792 10792 10792 10793 10793 10793 10794 10794 10794 10794 10794 10793 10791 10791 10792 10793 10793 10792 10791 10791
10554 10560 10563 10570 10583 10596 10604 10610 10621 10629 10632 10639 10649 10658 10664 10668 10671 10675 10680 10685 10688 10692 10696 10699 10704 10709 10714 10719 10723 10726 10730 10734 10738 10742 10745 10747 10750 10753 10755 10758 10760 10761 10763 10763 10763 10763 10764 10765 10766 10767 10768 10770 10772 10774 10775 10776 10778 10779 10780 10780 10781 10781 10782 10783 10783 10783 10783 10783 10784 10784 10785 10785 10786 10786 10786 10786 10785 10786 10786 10785 10784 10784 10784 10783 10783 10782 10783
10541 10545 10550 10561 10575 10585 10591 10598 10609 10618 10623 10631 10641 10649 10655 10660 10661 10665 10671 10675 10677 10682 10688 10691 10694 10697 10702 10707 10712 10716 10721 10725 10729 10732 10735 10738 10740 10742 10745 10748 10750 10752 10754 10754 10754 10754 10755 10756 10757 10758 10760 10762 10763 10765 10766 10767 10769 10770 10771 10772 10772 10773 10773 10774 10774 10775 10775 10775 10775 10776 10777 10777 10777 10778 10778 10777 10777 10777 10778 10779 10778 10777 10776 10775 10775 10774 10774
10529 10533 10542 10553 10565 10573 10579 10587 10599 10609 10616 10624 10632 10639 10646 10651 10652 10654 10661 10666 10668 10673 10678 10681 10685 10688 10691 10697 10703 10708 10713 10717 10720 10723 10726 10728 10730 10732 10735 10737 10739 10741 10743 10744 10744 10744 10746 10747 10748 10749 10751 10753 10754 10755 10757 10758 10760 10762 10763 10763 10764 10764 10764 10764 10765 10765 10766 10766 10767 10768 10768 10768 10769 10769 10770 10771 10771 10770 10769 10770 10771 10771 10770 10769 10768 10767 10766
10517 10523 10533 10545 10555 10563 10571 10580 10591 10601 10607 10614 10620 10626 10635 10641 10642 10644 10652 10657 10660 10664 10668 10672 10676 10680 10684 10689 10694 10699 10705 10709 10711 10713 10715 10717 10720 10723 10725 10727 10729 10730 10733 10734 10734 10735 10737 10738 10738 10739 10740 10742 10744 10745 10747 10749 10750 10752 10753 10754 10754 10754 10754 10755 10755 10756 10756 10757 10758 10759 10759 10760 10760 10761 10762 10763 10764 10764 10763 10762 10762 10763 10763 10762 10761 10760 10759
10504 10511 10522 10535 10545 10553 10561 10572 10582 10589 10595 10601 10607 10615 10625 10631 10632 10635 10643 10647 10649 10654 10660 10664 10667 10671 10677 10681 10685 10690 10695 10698 10701 10703 10705 10708 10711 10714 10716 10718 10719 10720 10722 10724 10725 10726 10728 10729 10729 10730 10731 10732 10734 10735 10737 10738 10740 10741 10742 10742 10743 10743 10743 10744 10745 10746 10746 10747 10748 10750 10750 10751 10752 10752 10753 10754 10756 10757 10758 10757 10756 10755 10754 10754 10753 10752 10752
10491 10501 10514 10526 10535 10543 10552 10561 10569 10575 10581 10589 10597 10606 10616 10621 10621 10625 10631 10635 10639 10644 10649 10654 10658 10663 10668 10672 10676 10680 10684 10688 10690 10693 10696 10700 10703 10705 10706 10708 10709 10709 10711 10714 10715 10717 10719 10720 10720 10721 10722 10723 10725 10726 10727 10728 10729 10729 10730 10730 10731 10732 10732 10733 10734 10735 10735 10737 10738 10739 10740 10742 10742 10743 10744 10746 10747 10749 10750 10751 10750 10749 10747 10746 10746 10745 10745
10481 10493 10506 10517 10525 10533 10542 10548 10554 10561 10569 10578 10587 10597 10605 10609 10611 10614 10619 10624 10629 10633 10638 10644 10650 10655 10659 10663 10666 10670 10674 10678 10681 10685 10689 10693 10695 10696 10696 10697 10698 10700 10701 10703 10705 10707 10709 10710 10710 10711 10713 10715 10717 10717 10718 10718 10718 10718 10719 10720 10720 10721 10722 10722 10723 10723 10724 10726 10727 10729 10730 10732 10733 10734 10736 10737 10739 10741 10743 10743 10742 10740 10740 10740 10739 10739 10739
10473 10483 10493 10502 10510 10520 10528 10534 10539 10548 10558 10567 10577 10587 10595 10598 10600 10604 10609 10614 10619 10624 10629 10635 10641 10645 10649 10653 10657 10661 10666 10670 10674 10677 10682 10685 10686 10686 10686 10688 10689 10690 10691 10692 10694 10696 10698 10699 10701 10702 10704 10707 10708 10709 10709 10708 10708 10709 10709 10710 10711 10713 10713 10713 10713 10713 10714 10716 10717 10719 10721 10723 10724 10726 10726 10728 10730 10732 10734 10734 10733 10732 10733 10732 10732 10734 10735
10463 10470 10479 10488 10498 10508 10516 10521 10525 10534 10545 10555 10565 10576 10583 10587 10590 10594 10600 10606 10610 10615 10620 10625 10630 10636 10641 10644 10648 10653 10658 10662 10666 10670 10673 10674 10674 10675 10677 10679 10679 10680 10682 10683 10685 10686 10688 10690 10692 10694 10696 10698 10699 10700 10700 10699 10699 10699 10700 10701 10703 10704 10705 10705 10706 10705 10706 10707 10707 10709 10711 10714 10715 10716 10717 10719 10722 10723 10724 10726 10727 10727 10726 10726 10726 10728 10731
10451 10459 10469 10479 10488 10496 10505 10510 10515 10523 10534 10545 10555 10564 10571 10576 10579 10585 10592 10597 10602 10607 10612 10616 10621 10627 10632 10636 10641 10646 10650 10652 10657 10661 10662 10661 10662 10664 10666 10668 10669 10670 10672 10673 10675 10677 10679 10681 10683 10685 10686 10688 10689 10691 10691 10691 10691 10691 10691 10692 10694 10695 10696 10697 10697 10697 10698 10698 10699 10700 10702 10704 10706 10707 10707 10710 10713 10715 10716 10718 10720 10721 10722 10722 10721 10722 10726
10442 10450 10459 10468 10475 10483 10493 10501 10506 10513 10524 10535 10544 10552 10560 10566 10572 10578 10584 10588 10594 10599 10604 10608 10613 10620 10625 10629 10634 10639 10641 10643 10646 10650 10651 10651 10652 10654 10655 10657 10659 10661 10661 10663 10664 10666 10669 10671 10674 10676 10677 10678 10679 10681 10682 10683 10683 10683 10684 10684 10686 10686 10687 10687 10687 10688 10688 10689 10690 10692 10694 10696 10697 10697 10698 10701 10705 10706 10708 10711 10713 10716 10718 10718 10717 10719 10722
10435 10441 10449 10458 10466 10473 10482 10490 10494 10500 10510 10522 10533 10542 10550 10558 10565 10571 10575 10580 10586 10592 10596 10601 10606 10612 10617 10622 10626 10630 10632 10635 10638 10640 10642 10642 10643 10645 10646 10648 10650 10651 10652 10653 10654 10656 10659 10663 10666 10667 10668 10669 10670 10671 10673 10674 10675 10676 10676 10677 10677 10677 10677 10677 10677 10678 10678 10679 10681 10683 10686 10687 10687 10688 10689 10692 10696 10698 10701 10703 10707 10710 10713 10712 10713 10717 10721
10429 10434 10441 10450 10458 10466 10473 10480 10484 10491 10501 10512 10523 10533 10542 10551 10559 10564 10567 10572 10579 10584 10588 10593 10597 10602 10608 10613 10618 10621 10623 10625 10628 10631 10633 10634 10635 10637 10638 10640 10641 10641 10642 10644 10645 10647 10650 10653 10656 10657 10658 10659 10660 10662 10664 10665 10667 10668 10668 10668 10668 10668 10668 10667 10667 10668 10669 10670 10672 10675 10677 10678 10678 10679 10681 10684 10687 10690 10692 10695 10699 10704 10706 10707 10707 10709 10713
10426 10431 10436 10443 10450 10457 10464 10471 10478 10486 10495 10505 10515 10524 10532 10542 10550 10556 10560 10564 10570 10574 10578 10582 10587 10591 10596 10602 10608 10612 10614 10616 10618 10621 10623 10624 10627 10629 10630 10632 10632 10632 10633 10635 10637 10638 10640 10643 10645 10647 10648 10648 10650 10652 10654 10655 10657 10658 10658 10658 10658 10659 10659 10658 10658 10659 10660 10662 10664 10666 10667 10669 10669 10670 10672 10675 10678 10680 10683 10686 10690 10695 10698 10700 10699 10697 10696
10424 10429 10434 10439 10444 10450 10456 10463 10471 10479 10488 10497 10506 10514 10522 10531 10540 10547 10552 10555 10558 10562 10566 10571 10575 10579 10584 10589 10595 10600 10604 10607 10610 10613 10614 10616 10619 10621 10623 10624 10624 10624 10624 10626 10629 10631 10633 10634 10635 10637 10638 10639 10640 10641 10643 10645 10646 10647 10648 10648 10649 10649 10650 10650 10650 10651 10652 10653 10654 10656 10657 10659 10660 10661 10664 10667 10669 10671 10673 10677 10680 10684 10688 10691 10691 10686 10683
10423 10427 10432 10436 10441 10446 10452 10458 10465 10472 10479 10488 10497 10505 10514 10523 10530 10536 10540 10543 10546 10550 10555 10560 10563 10567 10571 10577 10583 10590 10595 10600 10603 10606 10607 10609 10611 10613 10614 10615 10615 10615 10616 10618 10621 10623 10625 10626 10626 10627 10628 10629 10631 10632 10633 10634 10635 10636 10638 10639 10639 10640 10641 10641 10642 10642 10642 10643 10645 10646 10647 10649 10651 10653 10655 10658 10661 10663 10664 10667 10669 10673 10678 10681 10681 10679 10676
10423 10426 10431 10435 10439 10444 10449 10454 10459 10466 10472 10480 10489 10497 10505 10513 10519 10524 10529 10533 10536 10540 10545 10549 10551 10555 10561 10568 10575 10581 10588 10593 10596 10598 10599 10601 10602 10604 10605 10605 10605 10605 10607 10610 10613 10615 10615 10616 10617 10618 10619 10620 10622 10623 10624 10625 10626 10627 10628 10629 10630 10631 10631 10632 10632 10632 10632 10633 10635 10636 10638 10639 10641 10643 10645 10649 10652 10654 10656 10657 10658 10663 10668 10670 10670 10669 10669
10426 10427 10430 10434 10438 10442 10446 10450 10455 10460 10466 10473 10481 10489 10496 10503 10509 10514 10519 10524 10527 10531 10535 10538 10540 10545 10552 10559 10566 10573 10578 10583 10585 10587 10588 10590 10592 10593 10594 10595 10596 10597 10600 10603 10604 10605 10606 10607 10609 10610 10611 10612 10613 10614 10615 10616 10617 10619 10620 10621 10621 10621 10621 10622 10622 10622 10622 10623 10625 10626 10628 10629 10630 10632 10635 10639 10642 10644 10646 10647 10648 10651 10656 10658 10658 10658 10660
10429 10430 10432 10434 10438 10442 10445 10448 10452 10457 10462 10468 10474 10481 10488 10495 10500 10505 10510 10514 10518 10522 10526 10529 10531 10537 10544 10551 10558 10564 10569 10572 10574 10576 10578 10580 10583 10584 10585 10586 10588 10589 10592 10594 10595 10595 10597 10599 10600 10601 10602 10602 10604 10605 10606 10607 10609 10610 10611 10612 10611 10611 10611 10612 10612 10612 10613 10614 10616 10617 10618 10618 10620 10623 10625 10628 10632 10634 10636 10637 10639 10640 10643 10646 10646 10647 10649
10431 10433 10435 10438 10440 10443 10446 10449 10453 10457 10462 10468 10474 10478 10484 10489 10494 10498 10503 10508 10511 10515 10519 10521 10525 10531 10537 10542 10548 10553 10557 10560 10564 10567 10569 10571 10573 10574 10576 10577 10579 10580 10583 10585 10585 10586 10587 10589 10591 10592 10593 10594 10595 10596 10597 10598 10600 10601 10602 10602 10601 10601 10601 10602 10602 10603 10605 10606 10607 10608 10608 10609 10611 10614 10615 10617 10622 10624 10626 10627 10629 10631 10632 10633 10632 10633 10635
10437 10437 10438 10440 10442 10445 10447 10449 10452 10456 10460 10465 10471 10476 10481 10484 10487 10491 10496 10501 10505 10508 10511 10515 10520 10525 10528 10532 10536 10541 10546 10551 10555 10558 10560 10562 10564 10565 10566 10567 10569 10571 10574 10575 10575 10576 10578 10580 10582 10583 10584 10585 10586 10587 10588 10589 10591 10592 10592 10592 10592 10592 10592 10592 10593 10595 10596 10597 10598 10598 10599 10600 10602 10604 10606 10608 10611 10614 10615 10617 10619 10621 10623 10622 10620 10620 10623
10443 10443 10442 10442 10442 10445 10447 10449 10451 10454 10458 10462 10466 10471 10476 10479 10482 10485 10489 10494 10499 10503 10507 10511 10514 10517 10520 10524 10530 10535 10539 10542 10546 10548 10550 10552 10553 10554 10555 10557 10560 10563 10565 10565 10565 10567 10569 10571 10573 10574 10574 10574 10575 10576 10577 10579 10580 10582 10583 10583 10583 10583 10583 10583 10584 10585 10587 10588 10589 10589 10590 10592 10593 10595 10596 10598 10601 10603 10605 10607 10609 10611 10613 10612 10610 10611 10612
10443 10446 10447 10445 10444 10444 10445 10447 10450 10453 10456 10460 10463 10467 10470 10473 10476 10479 10484 10489 10493 10497 10501 10504 10506 10508 10512 10518 10523 10526 10528 10532 10535 10538 10540 10542 10542 10543 10545 10548 10551 10553 10554 10555 10556 10557 10559 10561 10562 10563 10563 10563 10564 10565 10566 10568 10570 10571 10573 10574 10574 10574 10575 10575 10575 10576 10577 10578 10579 10581 10582 10583 10585 10586 10587 10589 10591 10593 10595 10597 10599 10601 10602 10602 10602 10603 10602
10441 10444 10446 10447 10446 10445 10445 10446 10449 10451 10454 10457 10460 10462 10464 10467 10470 10474 10479 10483 10486 10488 10492 10495 10498 10502 10506 10510 10513 10515 10519 10522 10526 10528 10530 10531 10532 10535 10537 10539 10540 10541 10543 10544 10546 10547 10548 10549 10551 10552 10553 10553 10554 10555 10556 10558 10559 10561 10563 10564 10565 10566 10566 10567 10567 10567 10568 10569 10570 10571 10573 10574 10576 10577 10578 10579 10581 10583 10585 10587 10588 10589 10591 10592 10592 10593 10592
10440 10442 10443 10444 10445 10445 10445 10445 10447 10448 10450 10453 10455 10457 10459 10461 10465 10469 10473 10477 10480 10483 10486 10490 10493 10496 10499 10501 10504 10506 10509 10512 10514 10517 10519 10521 10523 10526 10528 10529 10529 10530 10531 10533 10535 10536 10536 10538 10540 10542 10543 10544 10545 10546 10547 10549 10550 10551 10553 10554 10556 10557 10558 10558 10559 10559 10560 10561 10562 10562 10564 10565 10567 10568 10569 10570 10571 10573 10575 10577 10578 10579 10580 10581 10582 10582 10581
10439 10440 10441 10441 10442 10443 10444 10444 10445 10446 10448 10449 10451 10453 10455 10458 10460 10463 10466 10470 10474 10477 10481 10485 10487 10488 10490 10492 10495 10497 10500 10503 10506 10509 10512 10514 10516 10517 10518 10519 10519 10519 10521 10523 10524 10525 10526 10528 10530 10531 10533 10534 10536 10537 10539 10540 10541 10542 10544 10545 10546 10547 10548 10549 10550 10551 10551 10552 10553 10554 10555 10556 10557 10558 10559 10560 10561 10563 10565 10566 10567 10568 10569 10569 10570 10571 10570
10437 10438 10439 10439 10440 10440 10441 10443 10443 10444 10445 10446 10448 10450 10452 10454 10455 10457 10460 10463 10466 10469 10473 10477 10479 10480 10482 10485 10487 10490 10493 10497 10501 10503 10504 10505 10505 10506 10507 10508 10509 10509 10511 10512 10514 10516 10517 10519 10520 10522 10523 10524 10526 10527 10529 10530 10532 10533 10534 10535 10536 10537 10538 10539 10540 10541 10542 10543 10543 10544 10545 10547 10548 10549 10549 10550 10550 10552 10554 10554 10555 10556 10557 10557 10557 10558 10559
10433 10435 10436 10437 10438 10438 10439 10440 10441 10442 10443 10444 10445 10446 10448 10449 10451 10453 10454 10457 10460 10463 10466 10469 10471 10473 10476 10479 10481 10484 10487 10490 10492 10493 10494 10494 10495 10496 10497 10498 10499 10500 10501 10503 10505 10506 10508 10509 10511 10512 10513 10514 10515 10517 10518 10520 10522 10523 10524 10525 10526 10527 10528 10529 10530 10531 10532 10533 10533 10534 10535 10536 10537 10538 10539 10539 10540 10541 10543 10543 10543 10544 10544 10543 10544 10546 10548
10429 10430 10432 10433 10434 10435 10436 10437 10438 10439 10440 10441 10442 10443 10443 10444 10446 10448 10450 10452 10454 10457 10459 10462 10465 10467 10470 10473 10475 10477 10480 10481 10482 10483 10484 10485 10486 10486 10487 10488 10489 10490 10491 10493 10494 10495 10497 10498 10500 10502 10503 10504 10504 10505 10507 10509 10511 10512 10513 10514 10515 10516 10517 10518 10519 10520 10521 10522 10523 10524 10525 10525 10526 10527 10528 10529 10529 10530 10531 10532 10532 10532 10532 10531 10531 10532 10536
10424 10425 10426 10428 10430 10431 10432 10433 10434 10436 10437 10438 10439 10439 10440 10441 10442 10444 10447 10449 10452 10454 10456 10458 10460 10462 10464 10466 10467 10469 10470 10471 10472 10473 10474 10475 10476 10477 10478 10479 10479 10480 10481 10483 10484 10485 10487 10489 10490 10492 10493 10493 10494 10495 10496 10497 10499 10501 10502 10503 10504 10505 10506 10507 10508 10509 10510 10511 10512 10513 10514 10515 10515 10516 10517 10518 10519 10519 10519 10520 10520 10520 10520 10520 10519 10519 10521